Location: Unspecified
(0.0000°N, 0.0000°E)
Time: 07:00:23
(UTC+00:00)

N. Korean satellite - Pass Details

Date: 20 June 2019
Orbit: 455 x 508 km, 97.2° (Epoch: 15 September)

Event Time Altitude Azimuth Distance (km) Brightness Sun altitude
Rises 04:48:35 0° 47° (NE) 2,506 11.6 -16.7°
Reaches altitude 10° 04:51:50 10° 80° (E) 1,648 10.5 -15.9°
Maximum altitude 04:53:06 12° 102° (ESE) 1,556 9.9 -15.6°
Drops below altitude 10° 04:54:24 10° 123° (ESE) 1,662 9.7 -15.4°
Sets 04:57:42 0° 156° (SSE) 2,562 10.2 -14.6°
